AO-07 1 07530U 74089B 19360.18130295 -.00000050 00000-0 -30374-4 0 9999 2 07530 101.7745 326.0820 0012239 341.0799 30.0617 12.53641340 64391 UO-11 1 14781U 84021B 19360.76802277 .00000085 00000-0 16541-4 0 9998 2 14781 97.5983 16.3096 0009710 57.8844 302.3312 14.83130495927080 LO-19 1 20442U 90005G 19360.71520446 -.00000019 00000-0 94999-5 0 9990 2 20442 98.6717 302.5823 0010952 310.4901 49.5328 14.32941151563736 HUBBLE 1 20580U 90037B 19359.81088714 .00000387 00000-0 12583-4 0 9999 2 20580 28.4708 34.7030 0002810 17.0374 146.0645 15.09316664429648 MET-2/21 1 22782U 93055A 19360.12517549 .00000018 00000-0 28065-5 0 9991 2 22782 82.5486 11.9403 0022465 7.7241 53.6628 13.83822195329202 AO-27 1 22825U 93061C 19360.57803042 -.00000023 00000-0 90793-5 0 9995 2 22825 98.9171 353.7091 0008760 156.9067 203.2510 14.30074286369230 IO-26 1 22826U 93061D 19359.97558406 -.00000023 00000-0 92012-5 0 9995 2 22826 98.9110 353.0599 0009440 148.0158 212.1598 14.30408747369350 FO-29 1 24278U 96046B 19360.40065361 -.00000032 00000-0 42516-6 0 9992 2 24278 98.5641 128.2121 0351262 105.6546 258.3638 13.53094858153595 NOAA-15 1 25338U 98030A 19360.55765132 .00000030 00000-0 31135-4 0 9994 2 25338 98.7331 21.3488 0011189 52.2060 308.0131 14.25944961124452 GO-32 1 25397U 98043D 19360.71270675 -.00000024 00000-0 88524-5 0 9993 2 25397 98.7104 298.7094 0001255 152.9197 207.2047 14.23676624115058 ISS 1 25544U 98067A 19360.84798499 -.00000638 00000-0 -30742-5 0 9997 2 25544 51.6423 126.1966 0007856 76.1377 60.5310 15.50124936205144 NO-44 1 26931U 01043C 19360.71510788 -.00000011 00000-0 27453-4 0 9993 2 26931 67.0503 230.7414 0006937 263.6448 96.3863 14.30562767952296 SO-50 1 27607U 02058C 19360.12669334 -.00000042 00000-0 14933-4 0 9991 2 27607 64.5535 187.3592 0068581 218.8016 140.8152 14.75597411915135 CO-55 1 27844U 03031E 19359.95931078 .00000049 00000-0 41570-4 0 9995 2 27844 98.6833 5.3214 0009563 194.8853 165.2045 14.22212713855332 CO-57 1 27848U 03031J 19359.93548370 .00000028 00000-0 32435-4 0 9993 2 27848 098.6906 005.8339 0009235 207.1475 152.9220 14.21803135855144 RS-22 1 27939U 03042A 19360.84899909 .00000094 00000-0 25385-4 0 9994 2 27939 98.0649 133.2594 0013118 177.3074 182.8210 14.66826931868569 NOAA-18 1 28654U 05018A 19360.54446826 .00000060 00000-0 57459-4 0 9997 2 28654 99.0709 50.1296 0014168 4.7401 355.3902 14.12476970752451 CO-58 1 28895U 05043F 19360.16792133 .00000091 00000-0 26358-4 0 9993 2 28895 97.9841 136.6925 0018050 109.6148 250.7006 14.63723863755344 Falconsat-3 1 30776U 07006E 19360.58385791 .00002385 00000-0 65779-4 0 9997 2 30776 35.4356 311.7267 0001762 17.4729 342.6058 15.36976022710067 CO-65 1 32785U 08021C 19360.75363198 .00000180 00000-0 24971-4 0 9993 2 32785 97.5597 351.5642 0012894 356.1854 3.9263 14.88394461632104 AAUSAT2 1 32788U 08021F 19360.69665924 .00000593 00000-0 59336-4 0 9992 2 32788 97.4919 7.9390 0010239 280.2119 79.7947 14.94897124633458 DO-64 1 32789U 08021G 19360.09967484 .00000742 00000-0 53012-4 0 9994 2 32789 97.4418 43.8094 0012027 186.5763 173.5309 15.07345050635642 CO-66 1 32791U 08021J 19360.71715147 .00000170 00000-0 22618-4 0 9996 2 32791 97.5326 357.6468 0012422 327.3311 32.7139 14.90939734632573 RS-30 1 32953U 08025A 19360.71325848 .00000037 00000-0 19437-3 0 9991 2 32953 82.5051 25.9656 0020308 74.4741 285.8578 12.43093141526046 PRISM 1 33493U 09002B 19359.79181957 .00000003 00000-0 59017-5 0 9997 2 33493 98.1309 288.0214 0014025 275.4423 84.5197 14.96850359593582 NOAA-19 1 33591U 09005A 19360.53681208 -.00000003 00000-0 23586-4 0 9999 2 33591 99.1915 356.3932 0013608 200.1261 159.9375 14.12388996560841 TISAT-1 1 36799U 10035E 19360.38829901 .00000416 00000-0 47963-4 0 9996 2 36799 98.1755 159.1689 0012382 175.0774 185.0567 14.91233932513184 JUGNU 1 37839U 11058B 19359.81221312 .00000314 00000-0 25523-4 0 9991 2 37839 19.9608 261.8542 0018830 262.6277 145.1442 14.12667683424178 SRMSAT 1 37841U 11058D 19360.22018778 .00000311 00000-0 25734-4 0 9992 2 37841 19.9731 320.0985 0012057 129.3809 354.7832 14.10646526423623 AO-71 1 37854U 11061E 19359.89213782 .00000704 00000-0 43674-4 0 9992 2 37854 101.7131 356.0351 0159417 220.7256 138.1950 15.06885787445181 HRBE 1 37855U 11061F 19360.72061726 .00000768 00000-0 46160-4 0 9999 2 37855 101.7261 354.5264 0172109 230.3771 128.2143 15.05903129445526 ALMASAT-1 1 38078U 12006B 19360.77169069 .00055665 51816-5 19396-3 0 9993 2 38078 69.4222 73.8336 0109367 320.3250 177.9663 15.80375440427485 HORYU-2 1 38340U 12025D 19360.10112886 .00000137 00000-0 28045-4 0 9998 2 38340 98.3065 44.1711 0010553 233.3571 126.6667 14.75791276409249 RS-40 1 38735U 12041C 19360.69461109 .00000007 00000-0 -18669-4 0 9991 2 38735 82.4755 109.0131 0016997 177.4168 182.7002 12.42579984336272 BEESAT-3 1 39135U 13015F 19360.71285287 .00000873 00000-0 52023-4 0 9994 2 39135 64.8653 142.3871 0043689 274.3991 85.2144 15.17812034369235 BEESAT-2 1 39136U 13015G 19359.83416529 .00000912 00000-0 55175-4 0 9996 2 39136 64.8698 149.6176 0030916 281.4152 78.3502 15.17234420369014 ZACUBE-1 1 39417U 13066B 19359.80919264 .00000179 00000-0 28652-4 0 9990 2 39417 97.5609 2.6109 0060047 129.7193 230.9335 14.81196914329181 TRITON-1 1 39427U 13066M 19359.84482848 .00000107 00000-0 25438-4 0 9998 2 39427 97.7016 325.7354 0112323 276.9009 81.9430 14.67923202326238 GOMX-1 1 39430U 13066Q 19360.78972659 .00000221 00000-0 48916-4 0 9994 2 39430 97.7720 305.0006 0151598 12.2662 348.2177 14.59330049324475 LO-74 1 39440U 13066AA 19360.73560293 .00000135 00000-0 25761-4 0 9994 2 39440 97.6148 348.0223 0080030 183.3653 176.7029 14.75934951328158 AO-73 1 39444U 13066AE 19359.90640021 .00000221 00000-0 33298-4 0 9993 2 39444 097.5571 004.8179 0059281 122.5670 238.1288 14.82033069327513 SPROUT 1 39770U 14029E 19360.81590541 .00000583 00000-0 70342-4 0 9990 2 39770 97.8915 102.9766 0009053 171.3194 188.8182 14.87553616303245 DUCHIFAT-1 1 40021U 14033M 19360.37826828 .00000220 00000-0 28228-4 0 9991 2 40021 97.9334 285.6683 0013711 136.6575 223.5723 14.90771091299955 NANOSATCBR1 1 40024U 14033Q 19360.77538224 .00000172 00000-0 23737-4 0 9994 2 40024 97.9208 282.9770 0012988 138.9640 221.2556 14.89962359299897 EO-79 1 40025U 14033R 19360.75255399 .00000170 00000-0 24056-4 0 9995 2 40025 97.9108 280.1416 0013100 145.4846 214.7224 14.89043338299753 DTUSAT-2 1 40030U 14033W 19360.73417595 .00000202 00000-0 27623-4 0 9996 2 40030 97.9009 277.9442 0012630 141.3640 218.8482 14.88628197299679 EO-80 1 40032U 14033Y 19360.74690067 .00000177 00000-0 25002-4 0 9996 2 40032 97.9015 277.9582 0012601 142.0477 218.1630 14.88573862299662 ANTELSAT 1 40034U 14033AA 19360.84851756 .00000171 00000-0 32745-4 0 9999 2 40034 97.7337 219.6256 0058134 198.2929 161.6190 14.74182575296837 VELOX-1 1 40057U 14034E 19360.83026771 .00000250 00000-0 42431-4 0 9996 2 40057 98.2570 128.3212 0010416 347.6530 12.4421 14.77772402295997 DAURIA DX 1 1 40071U 14037C 19360.71886603 .00000099 00000-0 20286-4 0 9995 2 40071 98.4447 164.6325 0008075 341.4460 18.6460 14.81320338295531 UKUBE-1 1 40074U 14037F 19360.83728567 .00000272 00000-0 39741-4 0 9994 2 40074 98.4495 173.8743 0004068 338.3037 21.7998 14.84162391296006 HODOYOSHI-1 1 40299U 14070B 19360.72857162 .00000457 00000-0 21890-4 0 9993 2 40299 97.3380 76.3888 0014167 87.4266 69.5549 15.23690144285354 CHUBUSAT-1 1 40300U 14070C 19360.83318199 .00000424 00000-0 21268-4 0 9993 2 40300 97.3092 70.0044 0021146 102.7324 33.9854 15.22300553285099 QSAT-EOS 1 40301U 14070D 19360.77638936 .00001278 00000-0 51352-4 0 9996 2 40301 97.3133 74.0810 0027157 83.6360 64.8283 15.26437589285437 FIREBIRD FU3 1 40377U 15003B 19359.78543294 .00001334 00000-0 55592-4 0 9990 2 40377 99.1159 19.1223 0125566 176.5455 183.6672 15.19432641270786 FIREBIRD FU4 1 40378U 15003C 19360.69334883 .00001294 00000-0 53990-4 0 9990 2 40378 99.1160 20.3048 0125809 173.4083 186.8839 15.19448034270920 GRIFEX 1 40379U 15003D 19360.78133076 .00000861 00000-0 40618-4 0 9994 2 40379 99.1204 13.3178 0133834 194.8703 164.8573 15.15957347270535 NO-84 1 40654U 15025D 19358.51335377 .00005995 00000-0 79954-4 0 08098 2 40654 054.9881 029.5007 0131014 092.4142 269.1820 15.50352162141702 DEORBITSAIL 1 40719U 15032E 19360.11600704 .00000346 00000-0 56278-4 0 9995 2 40719 97.8886 247.8439 0017544 53.4817 306.8006 14.76874193240363 NUDT-PHONESAT 1 40900U 15049B 19360.88510634 .00001682 00000-0 73524-4 0 9998 2 40900 97.4349 8.3937 0011371 229.4665 181.5816 15.23435053236763 XW-2A 1 40903U 15049E 19360.75166316 .00001411 00000-0 34520-4 0 9994 2 40903 97.3148 44.3877 0013591 166.4799 327.6024 15.42457809239692 XW-2C 1 40906U 15049H 19360.79779436 .00000473 00000-0 28187-4 0 9993 2 40906 97.4720 359.7843 0013192 255.5561 278.1319 15.15872781235943 XW-2D 1 40907U 15049J 19360.80771010 .00000720 00000-0 40814-4 0 9992 2 40907 97.4705 359.4807 0012521 252.5977 231.6297 15.16081358235961 LILACSAT-2 1 40908U 15049K 19360.82265438 .00000223 00000-0 15904-4 0 9997 2 40908 97.4848 358.0877 0014268 262.3099 221.0506 15.13920444235721 XW-2E 1 40909U 15049L 19360.82103215 .00000866 00000-0 45749-4 0 9995 2 40909 97.4619 2.6654 0011993 244.0102 239.7758 15.18102963236186 XW-2F 1 40910U 15049M 19360.79044079 .00000687 00000-0 37487-4 0 9996 2 40910 97.4648 1.7642 0013121 243.4822 288.6967 15.17613521235993 XW-2B 1 40911U 15049N 19360.79234326 .00000411 00000-0 24865-4 0 9994 2 40911 97.4728 0.1464 0012430 253.7167 279.8706 15.16007702235851 DCBB 1 40912U 15049P 19360.78242280 .00000812 00000-0 40866-4 0 9996 2 40912 97.4496 5.6960 0013670 221.2114 257.2660 15.19965289236333 TW-1C 1 40926U 15051B 19360.91301014 .00011817 00000-0 14764-3 0 9994 2 40926 97.1123 47.0656 0007860 32.6490 92.5605 15.59956809239928 TW-1A 1 40928U 15051D 19360.77077402 .00002034 00000-0 50008-4 0 9994 2 40928 97.1279 27.7525 0012447 96.6230 23.5012 15.41716210238602 IO-86 1 40931U 15052B 19359.88753326 .00000646 00000-0 76525-6 0 9996 2 40931 005.9928 140.3199 0013513 327.9320 031.8482 14.76622139229413 LQSat 1 40958U 15057A 19360.16313669 .00000014 00000-0 97800-5 0 9992 2 40958 97.8778 63.9898 0017899 354.4332 5.6674 14.73101322226849 AO-85 1 40967U 15058D 19360.32249245 -.00000024 00000-0 16520-4 0 9091 2 40967 64.7761 299.5181 0177478 138.8412 222.6238 14.76045427135874 ATHENOXAT-1 1 41168U 15077C 19360.06627055 .00001572 00000-0 47050-4 0 9995 2 41168 14.9878 260.5516 0011587 221.5113 138.4328 15.13999948222879 ChubuSat-2 1 41338U 16012B 19359.45356432 .00000271 00000-0 14269-4 0 9994 2 41338 31.0045 18.7506 0013743 182.9459 177.1096 15.00223492211437 ChubuSat-3 1 41339U 16012C 19360.73170623 .00000268 00000-0 14025-4 0 9990 2 41339 31.0130 8.4763 0013363 204.0815 155.9192 15.00393924211624 Horyu-4 1 41340U 16012D 19360.12075456 .00000401 00000-0 23613-4 0 9995 2 41340 31.0063 1.9000 0013932 218.3869 141.5776 15.01383206211657 OUFTI-1 1 41458U 16025C 19360.00835337 .00001090 00000-0 58384-4 0 9996 2 41458 98.1004 96.5550 0166370 77.1669 284.8086 15.06340012201219 e-st@r-II 1 41459U 16025D 19360.80296294 .00001083 00000-0 58461-4 0 9996 2 41459 98.1009 96.9362 0167605 76.2411 285.7387 15.05945405201307 AAUSAT4 1 41460U 16025E 19360.86118598 .00001326 00000-0 68916-4 0 9990 2 41460 98.0992 98.7562 0157173 66.7712 294.9970 15.08033812201479 LO-87 1 41557U 16033B 19360.75245847 .00000904 00000-0 36170-4 0 9990 2 41557 97.4119 87.1205 0013211 349.5327 10.5635 15.27621200199251 NuSat2 1 41558U 16033C 19360.74411815 .00001031 00000-0 38586-4 0 9995 2 41558 97.4156 88.7927 0012234 348.9860 11.1111 15.29557040199337 Lapan A3 1 41603U 16040E 19360.79564723 .00000048 00000-0 53546-5 0 9997 2 41603 97.3363 54.5136 0015062 90.2458 49.9940 15.19779292194767 Swayam 1 41607U 16040J 19359.87593680 .00001164 00000-0 51179-4 0 9991 2 41607 97.3430 58.1718 0014926 83.6234 276.6703 15.23762275194830 Pratham 1 41783U 16059A 19360.41604538 .00000066 00000-0 21946-4 0 9992 2 41783 98.0434 55.5300 0034436 142.5190 217.8423 14.63028500173437 AlSat 1N 1 41789U 16059G 19360.71996040 .00000069 00000-0 22042-4 0 9994 2 41789 98.0468 58.2471 0029301 130.0303 230.3472 14.64285838173605 ScatSat 1 41790U 16059H 19360.74869615 .00001439 00000-0 37505-3 0 9997 2 41790 98.1861 40.9801 0006743 91.0217 269.1684 14.50936388172034 TY-1 1 41844U 16066D 19360.79671633 .00000703 00000-0 31422-4 0 9997 2 41844 97.4046 5.9373 0013536 232.6602 300.2708 15.24564146173806 Pegasus-1 1 41846U 16066F 19360.37340159 .00000242 00000-0 46679-4 0 9997 2 41846 98.6881 43.3780 0367705 31.5367 330.7298 14.37675291163954 CAS-2T 1 41847U 16066G 19359.84332532 .00000055 00000-0 18502-4 0 9990 2 41847 98.6814 43.3540 0366325 29.2156 332.8986 14.38029692164320 EO-88 1 42017U 17008BX 19360.15364377 .00001217 00000-0 50126-4 0 9994 2 42017 97.3829 65.1029 0005448 203.8404 156.2582 15.26005647158963 nSIGHT1 1 42726U 98067MF 19360.86056866 .00047426 00000-0 22458-3 0 9992 2 42726 51.6325 44.4699 0001094 208.5301 151.5642 15.82494398147968 CAS-4B 1 42759U 17034B 19360.81491395 .00000034 00000-0 15638-4 0 9995 2 42759 43.0195 260.9935 0011840 10.0558 56.5087 15.09709961139728 CAS-4A 1 42761U 17034D 19360.77433580 .00000102 00000-0 19750-4 0 9990 2 42761 43.0196 260.6312 0011842 9.8719 89.9686 15.09788398139710 UCLSat 1 42765U 17036A 19359.88700783 .00001006 00000-0 45513-4 0 9998 2 42765 097.3272 053.5996 0009742 282.5790 077.4357 15.23127457140003 NIUSat 1 42766U 17036B 19360.72053898 .00000752 00000-0 36505-4 0 9990 2 42766 97.3266 52.3501 0013899 270.1934 89.7709 15.21412732139272 LituanicaSAT 2 1 42768U 17036D 19359.84573590 .00001643 00000-0 71812-4 0 9999 2 42768 097.3317 053.3057 0013253 270.9370 089.0348 15.23416657139256 Aalto 1 1 42775U 17036L 19360.65544519 .00000582 00000-0 28813-4 0 9991 2 42775 97.3250 52.6351 0012240 270.0424 89.9410 15.21588532139243 URSA MAIOR 1 42776U 17036M 19359.94074923 .00000669 00000-0 32515-4 0 9999 2 42776 097.3262 052.1535 0012059 272.7199 087.2657 15.21743686139148 Max Valier Sat 1 42778U 17036P 19360.17075988 .00000720 00000-0 34177-4 0 9994 2 42778 97.3309 53.4027 0010651 275.6195 84.3827 15.22317937139218 Pegasus 1 42784U 17036V 19360.66672192 .00000883 00000-0 40633-4 0 9999 2 42784 97.3275 54.1162 0010294 280.1311 79.8764 15.22849044139329 NUDATSat 1 42787U 17036Y 19360.20619020 .00001360 00000-0 59006-4 0 9998 2 42787 97.3318 54.6899 0010653 285.7589 74.2473 15.23984467139156 SUCHAI 1 1 42788U 17036Z 19360.15844134 .00001081 00000-0 48400-4 0 9995 2 42788 97.3282 54.0585 0009863 280.8307 79.1820 15.23328497139344 SKCUBE 1 42789U 17036AA 19359.85974326 .00000986 00000-0 44604-4 0 9993 2 42789 097.3279 053.6680 0009737 282.3288 077.6858 15.23199828139211 VZLUSAT 1 1 42790U 17036AB 19359.86560194 .00001343 00000-0 58359-4 0 9990 2 42790 097.3298 054.3539 0009280 280.4225 079.5967 15.23970931139256 VENTA 1 1 42791U 17036AC 19359.89851811 .00000945 00000-0 42849-4 0 9997 2 42791 097.3276 053.7551 0009397 282.6943 077.3243 15.23201315139212 Robusta 1B 1 42792U 17036AD 19360.09738025 .00001035 00000-0 46426-4 0 9999 2 42792 97.3280 54.0991 0009323 281.9575 78.0616 15.23379574139273 D-SAT 1 42794U 17036AF 19360.38428438 .00000381 00000-0 38577-4 0 9998 2 42794 97.5162 36.4463 0125323 225.3849 133.7095 14.91191636136754 TechnoSat 1 42829U 17042E 19360.74283939 .00000039 00000-0 92815-5 0 9995 2 42829 97.5419 245.4139 0015152 139.0888 221.1471 14.91038481133409 QIKCOM-1 1 42983U 98067NF 19360.67244426 .00002925 00000-0 41539-4 0 9994 2 42983 51.6398 100.5907 0004316 120.0913 240.0508 15.60148199123146 AO-91 1 43017U 17073E 19360.76877479 .00000371 00000-0 35035-4 0 9998 2 43017 97.7262 274.6747 0256143 256.1095 101.1505 14.78756423113494 EcAMSat 1 43019U 98067NG 19360.67965257 .00005641 00000-0 65357-4 0 9999 2 43019 51.6413 91.7017 0004428 105.7313 254.4171 15.63536142205582 PICSAT 1 43132U 18004X 19359.75053137 .00001051 00000-0 46366-4 0 9990 2 43132 97.4690 67.0182 0008357 314.1242 45.9307 15.23987204108440 AO-92 1 43137U 18004AC 19360.15470200 .00000789 00000-0 35739-4 0 9994 2 43137 97.4677 67.3362 0007981 315.2838 44.7755 15.23788152108498 TianYi 2 1 43155U 18008A 19360.77734696 .00000234 00000-0 17589-4 0 9996 2 43155 97.4689 69.1259 0018633 30.9416 116.8630 15.11387624106683 Zhou Enlai 1 43156U 18008B 19360.81781925 .00000935 00000-0 59786-4 0 9992 2 43156 97.4738 69.0335 0015665 30.1081 105.3300 15.10910370106658 TianYi 6 1 43158U 18008D 19360.78044319 .00000295 00000-0 21700-4 0 9993 2 43158 97.4695 68.2692 0014531 28.9517 89.0742 15.10468709106606 S-Net G 1 43186U 18014G 19360.69993056 .00000636 00000-0 60668-4 0 9997 2 43186 97.7028 266.2623 0012780 86.8704 273.3980 14.96730691103704 S-Net H 1 43187U 18014H 19360.69974676 .00000638 00000-0 60859-4 0 9999 2 43187 97.7026 266.2455 0012782 86.8119 273.4565 14.96730619103708 S-Net J 1 43188U 18014J 19360.69958428 .00000644 00000-0 61328-4 0 9996 2 43188 97.7029 266.2685 0012779 86.9157 273.3527 14.96730276103702 S-Net K 1 43189U 18014K 19360.69994723 .00000632 00000-0 60301-4 0 9992 2 43189 97.7026 266.2420 0012778 86.7587 273.5097 14.96730028102259 FMN 1 1 43192U 18015A 19360.81844269 .00001582 00000-0 66284-4 0 9991 2 43192 97.4213 126.5174 0015593 346.9690 167.0519 15.24927512105433 Shaonian Xing 1 43199U 18015H 19360.83957133 .00001114 00000-0 47013-4 0 9995 2 43199 97.4007 125.2444 0016839 357.2902 153.7434 15.25268767105497 1KUNS-PF 1 43466U 98067NP 19360.67722433 .00033605 00000-0 21886-3 0 9991 2 43466 51.6348 79.4527 0000717 331.8652 28.2309 15.75582905 92922 UBAKUSAT 1 43467U 98067NQ 19360.73062119 .00014656 00000-0 13564-3 0 9996 2 43467 51.6362 90.3747 0001669 70.7633 289.3544 15.67782673 92791 Irazu 1 43468U 98067NR 19360.62183256 .00080989 00000-0 32965-3 0 9999 2 43468 51.6347 69.2118 0002824 350.1493 9.9455 15.85467764193043 EnduroSat One 1 43551U 98067NZ 19359.84079630 .00018604 00000-0 16019-3 0 9991 2 43551 51.6360 96.4276 0004161 150.5280 209.5952 15.69343064 82865 EQUISat 1 43552U 98067PA 19359.71895666 .00014365 00000-0 13911-3 0 9991 2 43552 51.6378 100.9281 0004938 144.9334 215.1988 15.66666013 82750 UiTMSat 1 1 43589U 98067PD 19360.69409429 .00018056 00000-0 16740-3 0 9992 2 43589 51.6349 96.0802 0004135 158.8924 201.2244 15.67547499 78641 Maya 1 1 43590U 98067PE 19360.55985390 .00016928 00000-0 15727-3 0 9995 2 43590 51.6354 96.6913 0004251 158.6816 201.4358 15.67549747 78551 Bhutan 1 1 43591U 98067PF 19359.84181520 .00017339 00000-0 16064-3 0 9991 2 43591 51.6361 100.1886 0004432 156.8794 203.2402 15.67597250 78446 SiriusSat 1 1 43595U 98067PG 19360.77615098 .00015880 00000-0 15516-3 0 9991 2 43595 51.6353 98.1414 0002588 114.7064 245.4202 15.66351834 77739 SiriusSat 2 1 43596U 98067PH 19360.12454178 .00015952 00000-0 15688-3 0 9991 2 43596 51.6361 102.0970 0003035 112.5402 247.5915 15.66184568 77621 Tanusha-3 1 43597U 98067PJ 19360.09826528 .00025383 00000-0 21305-3 0 9992 2 43597 51.6341 97.3095 0002076 133.6866 226.4303 15.69749317 77681 SurfSat 1 43614U 18070B 19360.31435928 .00002167 00000-0 57396-4 0 9998 2 43614 93.0379 82.5288 0013059 294.5035 65.4857 15.38374371 71702 CP-7 DAVE 1 43615U 18070C 19359.94141558 .00002053 00000-0 54595-4 0 9991 2 43615 93.0383 82.3717 0013226 295.6104 64.3782 15.38264573 71648 ELFIN-B 1 43616U 18070D 19360.43811531 .00003233 00000-0 83110-4 0 9999 2 43616 93.0346 82.4863 0013776 296.2338 63.7500 15.39248668 71747 ELFIN-A 1 43617U 18070E 19360.16325404 .00003262 00000-0 83573-4 0 9994 2 43617 93.0402 82.7385 0013014 293.6674 66.3214 15.39361497 71705 STARS-Me Mother 1 43640U 98067PQ 19360.59173782 .00008818 00000-0 10607-3 0 9990 2 43640 51.6367 107.4719 0004926 95.4029 264.7527 15.61703861 69529 CubeBel 1 1 43666U 18083E 19360.83194123 .00000799 00000-0 42734-4 0 9994 2 43666 97.5057 23.8839 0013532 241.8952 291.4079 15.17913603 64275 Changshagaoxin 1 43669U 18083H 19360.82069027 .00000624 00000-0 34918-4 0 9992 2 43669 97.4922 22.5960 0009652 232.1380 127.8980 15.17035568 64206 Ten-Koh 1 43677U 18084G 19360.58730374 .00000126 00000-0 18882-4 0 9994 2 43677 97.8680 113.2831 0016374 17.3134 342.8639 14.90230563 63047 PO-101 1 43678U 18084H 19360.79696287 -.00000325 00000-0 -26688-4 0 9998 2 43678 97.8680 114.4338 0010808 37.6039 322.5939 14.91591600 63139 IRVINE 01 1 43693U 18088D 19360.77881303 .00002065 00000-0 88140-4 0 9994 2 43693 85.0348 191.8848 0017052 204.4380 155.6055 15.22114720 62426 QO-100 1 43700U 18090A 19360.26805035 .00000144 00000-0 00000 0 0 9998 2 43700 0.0125 55.0987 0001532 257.2112 264.4369 1.00272321 4207 Reaktor Hello World 1 43743U 18096AA 19360.81018310 .00000926 00000-0 37597-4 0 9998 2 43743 97.4422 70.4311 0018811 26.0891 43.5025 15.27006558 59891 MinXSS-2 1 43758U 18099A 19360.44774430 -.00000138 00000-0 -72273-5 0 9996 2 43758 97.7274 70.0620 0016694 54.1058 306.1709 14.95539860 57940 AO-95 1 43770U 18099N 19360.74766031 .00000625 00000-0 62491-4 0 9990 2 43770 97.7272 69.9837 0015835 60.5291 299.7507 14.94879121 57966 RANGE-B 1 43772U 18099Q 19359.78372863 -.00000017 00000-0 37531-5 0 9994 2 43772 97.7332 69.3571 0015181 51.3718 308.8859 14.95026752 57811 RANGE-A 1 43773U 18099R 19360.73747546 .00000415 00000-0 43270-4 0 9993 2 43773 97.7216 69.7408 0014551 48.9651 311.2824 14.94884555 57951 MOVE-II 1 43780U 18099Y 19360.74097229 .00000716 00000-0 70231-4 0 9999 2 43780 97.7265 70.0872 0014655 59.1004 301.1656 14.95232531 57957 SNUSat 2 1 43782U 18099AA 19360.13817290 .00000466 00000-0 47671-4 0 9996 2 43782 97.7266 69.5320 0013749 50.8836 309.3604 14.95152637 57877 SnugLite 1 43784U 18099AC 19360.71967014 -.00000078 00000-0 -18355-5 0 9991 2 43784 97.7232 69.9814 0016201 55.3378 304.9367 14.95243368 57971 ITASat 1 1 43786U 18099AE 19360.71794537 -.00000172 00000-0 -10374-4 0 9998 2 43786 97.7285 70.2488 0016312 54.3225 305.9512 14.95233560 57972 EAGLET 1 1 43790U 18099AJ 19360.75399709 .00000597 00000-0 58902-4 0 9997 2 43790 97.7277 70.4617 0014814 59.5238 300.7443 14.95609926 57687 ESEO 1 43792U 18099AL 19360.75480233 .00000441 00000-0 44902-4 0 9995 2 43792 97.7254 70.3632 0014597 56.6544 303.6071 14.95556735 57741 CSIM 1 43793U 18099AM 19359.77362241 .00000060 00000-0 10569-4 0 9993 2 43793 97.7235 69.3026 0014114 57.4778 302.7805 14.95877585 57574 Astrocast 0.1 1 43798U 18099AS 19360.76379390 .00000292 00000-0 31308-4 0 9993 2 43798 97.7268 70.5389 0013431 41.4179 318.8058 14.95800072 57980 JO-97 1 43803U 18099AX 19360.75166107 .00000642 00000-0 63210-4 0 9995 2 43803 97.7246 70.1460 0016356 55.3577 304.9183 14.95388458 57977 Suomi 100 1 43804U 18099AY 19360.75150357 .00000642 00000-0 63266-4 0 9997 2 43804 97.7244 70.1403 0016434 55.4605 304.8164 14.95382858 57980 Al Farabi 2 1 43805U 18099AZ 19360.73795199 .00000571 00000-0 56695-4 0 9994 2 43805 97.7246 70.1690 0016319 55.5300 304.7460 14.95469524 57980 PWSat 2 1 43814U 18099BJ 19360.22133774 .00018074 00000-0 12687-2 0 9991 2 43814 97.7782 73.5701 0005525 85.6650 274.5202 15.05197790 57459 CHOMPTT 1 43855U 18104G 19360.36631835 .00000863 00000-0 35187-4 0 9998 2 43855 85.0364 290.3457 0017688 342.0752 17.9854 15.22672973 57039 ISAT 1 43879U 18111D 19360.68109011 .00000514 00000-0 50705-4 0 9999 2 43879 97.7105 265.8132 0014600 104.2019 256.0825 14.96113530 52500 UWE-4 1 43880U 18111E 19359.68589034 .00000627 00000-0 60434-4 0 9991 2 43880 097.7116 265.0137 0013802 107.9572 252.3155 14.96350980054350 Sparrow 1 43881U 18111F 19360.74447742 .00000391 00000-0 39532-4 0 9993 2 43881 97.7119 266.1027 0013821 103.5175 256.7588 14.96401510 52516 Lume 1 1 43908U 18111AJ 19359.88794138 .00000908 00000-0 39355-4 0 9997 2 43908 97.2790 259.8301 0022702 43.3198 316.9819 15.24682654 55425 FO-98 1 43933U 19003B 19360.84253456 .00000491 00000-0 24446-4 0 9999 2 43933 97.2579 51.9872 0019269 129.9291 345.2447 15.21870703 52128 FO-99 1 43937U 19003F 19360.79070637 .00001033 00000-0 45177-4 0 9992 2 43937 97.2539 52.7113 0025834 116.1487 309.7542 15.23975216 52189 Delphini 1 1 44030U 98067PW 19360.58337132 .00012029 00000-0 14837-3 0 9992 2 44030 51.6364 113.4273 0004307 143.3371 216.7917 15.60630900 51318 MYSat 1 1 44045U 18092F 19360.17696503 .00002229 00000-0 73926-4 0 9999 2 44045 51.6403 167.9094 0012589 55.3259 304.8872 15.35782736 48504 AstroCast 0.2 1 44083U 19018F 19360.73213443 .00000619 00000-0 30506-4 0 9998 2 44083 97.4455 58.9604 0015349 63.6153 296.6657 15.21572535 40969 AISTechSat 3 1 44103U 19018AB 19360.78830883 .00000591 00000-0 28193-4 0 9997 2 44103 97.4348 59.0842 0015120 78.8429 15.8561 15.22893676 41004 AISat 1 1 44104U 19018AC 19360.63292667 .00000686 00000-0 24524-4 0 9993 2 44104 97.4871 64.0306 0060202 109.3756 251.4006 15.30764865 41212 Raavana-1 1 44329U 98067QE 19360.74798593 .00007921 00000-0 12434-3 0 9999 2 44329 51.6400 122.8232 0006914 76.5339 283.6422 15.54657797 29951 Uguisu 1 44330U 98067QF 19360.62465380 .00007848 00000-0 12351-3 0 9999 2 44330 51.6397 123.4977 0006887 74.7408 285.4344 15.54604251 29913 NepaliSat-1 1 44331U 98067QG 19359.77955140 .00007468 00000-0 11757-3 0 9999 2 44331 51.6395 127.6054 0006948 74.5405 285.6353 15.54675861 29790 Prox-1 1 44339U 19036A 19360.01455656 .00000791 00000-0 13874-3 0 9996 2 44339 24.0018 129.3058 0011321 43.6454 316.4969 14.52781820 26736 OBJECT H 1 44346U 19036H 19360.89213096 .00512616 51336-4 54211-2 0 9995 2 44346 28.5276 73.8011 0252013 268.9451 88.2433 15.32720147 27752 OBJECT J 1 44347U 19036J 19359.90681534 .00042384 00000-0 61466-3 0 9991 2 44347 028.5353 079.6051 0346255 259.2780 096.7874 15.07628589027614 OBJECT K 1 44348U 19036K 19359.91181564 .00011359 00000-0 17271-3 0 9994 2 44348 028.5219 085.3359 0379681 250.1452 105.7827 14.99408917027559 Armadillo 1 44352U 19036P 19360.62948178 .00014743 00000-0 22671-3 0 9991 2 44352 28.5372 79.6705 0372494 259.0594 96.7883 15.00792588 27616 NO-104 1 44354U 19036R 19360.55032308 .00010887 00000-0 16331-3 0 9995 2 44354 28.5350 79.9358 0376718 258.2256 97.5846 15.00257167 27640 NO-103 1 44355U 19036S 19360.35203301 .00022439 00000-0 33579-3 0 9996 2 44355 28.5350 79.3118 0366414 259.2650 96.6491 15.02786997 27635 Oculus-ASR 1 44356U 19036T 19360.60600258 .00048881 00000-0 64354-3 0 9991 2 44356 28.5321 70.4895 0338996 273.3974 82.7904 15.11135073 27759 CP9 1 44360U 19036X 19360.20491335 .00030457 00000-0 39933-3 0 9991 2 44360 28.5207 75.8230 0361215 265.2977 90.6281 15.06694947 27538 Move-IIb 1 44398U 19038N 19360.64800764 .00001103 00000-0 67682-4 0 9991 2 44398 97.5139 319.3973 0025839 9.8298 350.3433 15.11936278 26318 SONATE 1 44400U 19038Q 19360.71853721 .00000441 00000-0 29479-4 0 9990 2 44400 97.5161 319.4837 0025582 7.9355 352.2275 15.11782622 26323 BeeSat 9 1 44412U 19038AC 19360.16992098 .00000859 00000-0 53504-4 0 9992 2 44412 97.5152 318.9783 0023408 15.7630 344.4323 15.12005108 25939 JAISAT-1 1 44419U 19038F 19359.84886281 .00000774 00000-0 48006-4 0 9995 2 44419 97.5153 318.7952 0022290 16.6734 343.5224 15.12489551 26205 LightSail-2 1 44420U 19036AC 19360.78207996 .00003278 00000-0 71185-3 0 9995 2 44420 24.0115 123.7438 0021570 19.4387 340.6946 14.53974989 24999 Taurus 1 1 44530U 19059C 19360.76769479 -.00000427 00000-0 -10848-3 0 9993 2 44530 98.5809 75.1536 0013845 317.7787 42.2322 14.45283332 15258 MO-106 1 44830U 19084G 19355.84908476 .00031130 00000-0 30180-3 0 9993 2 44830 97.0015 219.9019 0039984 196.5366 163.3885 15.65255295 2419 TRSI-Sat 1 44831U 19084H 19353.86690069 .00018606 00000-0 18398-3 0 9990 2 44831 96.9919 217.9463 0034695 203.9416 156.0319 15.65120419 2112 MO-105 1 44832U 19084J 19360.57797680 .00024461 00000-0 23433-3 0 9996 2 44832 97.0000 224.6103 0039583 176.1879 183.9692 15.65614292 3152 Duchifat 3 1 44854U 19089C 19360.83950074 .00000173 00000-0 20518-4 0 9998 2 44854 36.9680 44.2673 0007378 91.2164 268.9423 14.98935906 2238 OPS-SAT 1 44878U 19092F 19360.56701132 -.00000066 00000-0 00000 0 0 9998 2 44878 97.4615 181.8627 0013206 235.9321 124.0699 15.15166428 1208 FloripaSat 1 1 44885U 19093G 19360.80273899 .00000337 00000-0 49334-4 0 9996 2 44885 97.9772 72.8773 0013580 250.8806 109.0914 14.81944087 989 /EX